Regional Weather Roundup
Issued by NWS

Current Version | Previous Version | Text Only | Print | Product List | Glossary On
Versions: 1 2 3 4 5 6 7 8 9 10 11 12 13 14 15 16 17 18 19 20 21 22 23 24 25 26 27 28 29 30 31 32 33 34 35 36 37 38 39 40 41 42 43 44 45 46 47 48 49 50
000
ASUS46 KPQR 241110
RWROR

OREGON REGIONAL WEATHER ROUNDUP
NATIONAL WEATHER SERVICE PORTLAND OR
400 AM PDT SUN MAY 24 2015

NOTE: "FAIR" INDICATES FEW OR NO CLOUDS BELOW 12,000 FEET WITH
NO SIGNIFICANT WEATHER AND/OR OBSTRUCTIONS TO VISIBILITY.

ORZ001>013-241200-
NORTHWEST OREGON


CITY           SKY/WX    TMP DP  RH WIND       PRES   REMARKS
ASTORIA        CLOUDY    51  50  96 W3        30.18F
NEWPORT        MOCLDY    52  48  87 CALM      30.21F
PORTLAND       CLOUDY    54  48  80 NW7       30.17F
VANCOUVER WA   CLOUDY    54  47  77 VRB5      30.17S
SCAPPOOSE      CLOUDY    54  47  77 NW7       30.17S
HILLSBORO      CLOUDY    53  46  77 NW7       30.17S
AURORA         CLOUDY    53  47  79 N7        30.18S
MCMINNVILLE    CLOUDY    53  49  86 CALM      30.18S
SALEM          CLOUDY    54  48  80 N6        30.16F
CORVALLIS      CLOUDY    52  46  82 NW8       30.17S
EUGENE         CLOUDY    53  50  89 NE6       30.16F
$$

ORZ021-028-241200-
SOUTHWEST OREGON


CITY           SKY/WX    TMP DP  RH WIND       PRES   REMARKS
NORTH BEND     CLOUDY    54  50  87 N7        30.18F
BROOKINGS      FOG       50  50 100 CALM      30.09F VSB 1/2
ROSEBURG       CLOUDY    57  50  77 CALM      30.14S
SEXTON SUMMIT  PTCLDY    44  44 100 NE7       30.11F
MEDFORD        PTCLDY    50  46  86 CALM      30.12S
$$

ORZ014>016-041-241200-
COLUMBIA GORGE


CITY           SKY/WX    TMP DP  RH WIND       PRES   REMARKS
TROUTDALE      CLOUDY    55  47  74 VRB3      30.16S
THE DALLES     CLEAR     58  48  69 NW14      30.03F
$$

ORZ029>031-041-044-049-050-061>064-502-503-505>511-241200-
EASTERN OREGON


CITY           SKY/WX    TMP DP  RH WIND       PRES   REMARKS
REDMOND        CLEAR     42  40  92 CALM      30.08F
BEND           CLEAR     45  41  87 SW5       30.09F
PRINEVILLE     CLEAR     41  41 100 CALM      30.08S
KLAMATH FALLS  CLEAR     42  40  92 SE5       30.09F
LAKEVIEW       CLEAR     45  41  87 NW8       30.09S
HERMISTON      CLEAR     57  48  72 SW8       30.01F
PENDLETON      PTCLDY    52  48  86 SW9       30.01F
JOHN DAY       CLEAR     51  48  90 W5        30.06R
MEACHAM        PTCLDY    41  39  93 CALM      30.05F
LA GRANDE      CLEAR     52  41  66 NW9       30.00F
BAKER CITY     CLEAR     52  46  80 W8        30.01S
BURNS          CLEAR     47  43  86 W9        30.04S
ROME             N/A     48  44  86 SW3       30.00S
ONTARIO        CLEAR     55  46  71 W5        29.96R
$$


USA.gov is the U.S. government's official web portal to all federal, state and local government web resources and services.